User: anonymous   Login
Location: Boca de Tacagua
(10.5333°N, 66.9833°W)
Time: 12:46:13
(UTC+00:00)
Language:

ASTERISC - Orbit

View from above orbital plane
View from above orbital plane
View from above satellite
View from above satellite

Ground track
Ground track

The orbit data is extracted from the following two-line orbital elements,

1 49395U 21102A   22268.84391755  .00005406  00000-0  41453-3 0  9993
2 49395  97.5283 324.2372 0016187 235.5889 124.3806 15.02119865 48129
Epoch (UTC): 25 September 2022 20:15:14
Eccentricity: 0.0016187
inclination: 97.5283°
perigee height: 549 km
apogee height: 571 km
right ascension of ascending node: 324.2372°
argument of perigee: 235.5889°
revolutions per day: 15.02119865
mean anomaly at epoch: 124.3806°
orbit number at epoch: 4812

The dashed part of the orbit path shows where the satellite is in the earth's shadow,  

DLR